Skip Page Navigation
NASA JPL Caltech
NASA Logo - Jet Propulsion Laboratory + View the NASA Portal
+ Center for Near-Earth Object Studies
JPL Home Earth Solar System Stars & Galaxies Technology
JPL Solar System Dynamics
BODIES ORBITS EPHEMERIDES TOOLS PHYSICAL DATA DISCOVERY FAQ SITE MAP
JPL Small-Body Database Browser
Search: [ help ]  
266409 (2007 FE17)
Classification: Main-belt Asteroid          SPK-ID: 2266409
Ephemeris | Orbit Diagram | Orbital Elements | Mission Design | Physical Parameters | Discovery Circumstances | Close-Approach Data ]

[ show orbit diagram ]
Orbital Elements at Epoch 2459000.5 (2020-May-31.0) TDB
Reference: JPL 12 (heliocentric ecliptic J2000)
 Element Value Uncertainty (1-sigma)   Units 
e .00723929218191902 5.9759e-08  
a 2.72497592831396 2.3408e-08 au
q 2.705249031380199 1.6748e-07 au
i 7.211232874502293 6.3519e-06 deg
node 44.34289108147038 4.6229e-05 deg
peri 226.99465336 0.00068028 deg
M 235.5534916964423 0.00068673 deg
tp 2459568.466403743514
(2021-Dec-19.96640374)
0.0031372 TDB
period 1643.018419198344
4.50
2.1171e-05
5.796e-08
d
yr
n .2191089252521283 2.8233e-09 deg/d
Q 2.744702825247721 2.3578e-08 au
  Orbit Determination Parameters
   # obs. used (total)      237  
   data-arc span      9405 days (25.75 yr)  
   first obs. used      1994-05-05  
   last obs. used      2020-02-03  
   planetary ephem.      DE431  
   SB-pert. ephem.      SB431-N16  
   condition code      0  
   norm. resid. RMS      .57709  
   source      ORB  
   producer      Otto Matic  
   solution date      2020-Feb-25 12:46:59  

Additional Information
 Earth MOID = 1.69467 au 
 Jupiter MOID = 2.22783 au 
 T_jup = 3.345 
[ show covariance matrix ]

Ephemeris | Orbit Diagram | Orbital Elements | Mission Design | Physical Parameters | Discovery Circumstances | Close-Approach Data ]

Physical Parameter Table
Parameter Symbol Value Units Sigma Reference Notes
absolute magnitude H 16.3   n/a MPO454980  

266409 (2007 FE17)          Discovered 2007-Mar-20 by Mt. Lemmon Survey at Mount Lemmon
Reference: 20110218/Numbers.arcLast Updated: 2011-02-22

[ show close-approach data ]
Alternate Designations
 2007 FE17 = 2000 WZ104 = 2009 UN60 
Ephemeris | Orbit Diagram | Orbital Elements | Mission Design | Physical Parameters | Discovery Circumstances | Close-Approach Data ]
ABOUT SSD CREDITS/AWARDS PRIVACY/COPYRIGHT GLOSSARY LINKS
FirstGov 2020-Aug-08 18:55 UT
(server date/time)  
NASA Home Page
Site Manager:   Ryan S. Park
Webmaster  Alan B. Chamberlin